| time (UTC) | temp F | wind direction | speed MPH | gust MPH | rain 1hr in | rain 24hr in | rain mn in | humidity % | barometer mb |
| 20260902030859 | 72 | 148 | 0.0 | 3.0 | 0.00 | 0.00 | 0.00 | 36 | 966.1 |
| 20260902030356 | 72 | 93 | 0.0 | 3.0 | 0.00 | 0.00 | 0.00 | 36 | 966.0 |
| 20260902025859 | 73 | 141 | 0.0 | 3.0 | 0.00 | 0.00 | 0.00 | 36 | 966.0 |
| 20260902025355 | 74 | 114 | 0.0 | 4.0 | 0.00 | 0.00 | 0.00 | 34 | 966.0 |
| 20260902024858 | 74 | 89 | 0.0 | 4.0 | 0.00 | 0.00 | 0.00 | 34 | 965.9 |
| 20260902023856 | 76 | 76 | 0.0 | 1.0 | 0.00 | 0.00 | 0.00 | 34 | 965.9 |
| 20260902023356 | 76 | 76 | 0.0 | 0.0 | 0.00 | 0.00 | 0.00 | 34 | 965.9 |
| 20260902022905 | 77 | 75 | 0.0 | 0.0 | 0.00 | 0.00 | 0.00 | 32 | 965.9 |
| 20260902022857 | 77 | 76 | 0.0 | 0.0 | 0.00 | 0.00 | 0.00 | 32 | 965.8 |
| 20260902021856 | 78 | 75 | 0.0 | 0.0 | 0.00 | 0.00 | 0.00 | 33 | 965.8 |
| 20260902021403 | 79 | 75 | 0.0 | 1.0 | 0.00 | 0.00 | 0.00 | 34 | 965.9 |
| 20260902021357 | 78 | 75 | 0.0 | 0.0 | 0.00 | 0.00 | 0.00 | 33 | 965.9 |
| 20260902020356 | 79 | 75 | 0.0 | 1.0 | 0.00 | 0.00 | 0.00 | 33 | 965.9 |
| 20260902015856 | 80 | 75 | 0.0 | 0.0 | 0.00 | 0.00 | 0.00 | 33 | 965.8 |
| 20260902015401 | 80 | 75 | 0.0 | 0.0 | 0.00 | 0.00 | 0.00 | 32 | 965.9 |
| 20260902015354 | 80 | 75 | 0.0 | 0.0 | 0.00 | 0.00 | 0.00 | 32 | 965.9 |
| 20260902015022 | 80 | 75 | 0.0 | 0.0 | 0.00 | 0.00 | 0.00 | 32 | 965.9 |
| 20260902013857 | 81 | 75 | 0.0 | 3.0 | 0.00 | 0.00 | 0.00 | 31 | 965.9 |
| 20260902013354 | 82 | 75 | 0.0 | 3.0 | 0.00 | 0.00 | 0.00 | 30 | 965.9 |
| 20260902012855 | 82 | 75 | 0.0 | 1.0 | 0.00 | 0.00 | 0.00 | 30 | 965.9 |
| 20260902012353 | 82 | 75 | 0.0 | 0.0 | 0.00 | 0.00 | 0.00 | 30 | 965.8 |
| 20260902011854 | 82 | 75 | 0.0 | 1.0 | 0.00 | 0.00 | 0.00 | 29 | 965.9 |
| 20260902010856 | 83 | 75 | 0.0 | 3.0 | 0.00 | 0.00 | 0.00 | 28 | 965.8 |
| 20260902010400 | 83 | 72 | 0.0 | 4.0 | 0.00 | 0.00 | 0.00 | 28 | 965.9 |
| 20260902010354 | 83 | 75 | 0.0 | 3.0 | 0.00 | 0.00 | 0.00 | 28 | 965.9 |
| 20260902005400 | 84 | 87 | 0.0 | 6.0 | 0.00 | 0.00 | 0.00 | 27 | 965.9 |
| 20260902005354 | 84 | 71 | 0.0 | 4.0 | 0.00 | 0.00 | 0.00 | 28 | 965.9 |
| 20260902005018 | 84 | 82 | 2.0 | 6.0 | 0.00 | 0.00 | 0.00 | 26 | 965.9 |
| 20260902003853 | 84 | 102 | 0.0 | 7.0 | 0.00 | 0.00 | 0.00 | 25 | 965.9 |
| 20260902003521 | 85 | 92 | 4.0 | 7.0 | 0.00 | 0.00 | 0.00 | 24 | 965.8 |
| 20260902003359 | 85 | 131 | 4.0 | 7.0 | 0.00 | 0.00 | 0.00 | 22 | 965.9 |
| 20260902003352 | 84 | 110 | 2.0 | 7.0 | 0.00 | 0.00 | 0.00 | 24 | 965.9 |
| 20260902001902 | 85 | 103 | 2.0 | 9.0 | 0.00 | 0.00 | 0.00 | 23 | 965.9 |
| 20260902001854 | 85 | 80 | 1.0 | 7.0 | 0.00 | 0.00 | 0.00 | 23 | 965.9 |
| 20260902001517 | 85 | 102 | 3.0 | 9.0 | 0.00 | 0.00 | 0.00 | 23 | 965.9 |
| 20260902000352 | 85 | 111 | 3.0 | 9.0 | 0.00 | 0.00 | 0.00 | 24 | 966.0 |
| 20260901235853 | 85 | 131 | 3.0 | 9.0 | 0.00 | 0.00 | 0.00 | 24 | 966.0 |
| 20260901235352 | 85 | 97 | 2.0 | 7.0 | 0.00 | 0.00 | 0.00 | 24 | 966.0 |
| 20260901234853 | 85 | 68 | 1.0 | 7.0 | 0.00 | 0.00 | 0.00 | 24 | 966.0 |
| 20260901234358 | 85 | 155 | 3.0 | 7.0 | 0.00 | 0.00 | 0.00 | 24 | 966.0 |
| 20260901234352 | 85 | 118 | 1.0 | 6.0 | 0.00 | 0.00 | 0.00 | 24 | 966.0 |
| 20260901233352 | 85 | 162 | 3.0 | 7.0 | 0.00 | 0.00 | 0.00 | 22 | 966.1 |
| 20260901232854 | 86 | 102 | 1.0 | 7.0 | 0.00 | 0.00 | 0.00 | 23 | 966.1 |
| 20260901232351 | 86 | 102 | 4.0 | 7.0 | 0.00 | 0.00 | 0.00 | 23 | 966.1 |
| 20260901231853 | 86 | 90 | 2.0 | 9.0 | 0.00 | 0.00 | 0.00 | 23 | 966.1 |
| 20260901231350 | 86 | 59 | 4.0 | 9.0 | 0.00 | 0.00 | 0.00 | 26 | 966.1 |
| 20260901230853 | 86 | 78 | 2.0 | 5.0 | 0.00 | 0.00 | 0.00 | 24 | 966.4 |
| 20260901230350 | 87 | 190 | 0.0 | 2.0 | 0.00 | 0.00 | 0.00 | 25 | 966.4 |
| 20260901225852 | 87 | 190 | 0.0 | 3.0 | 0.00 | 0.00 | 0.00 | 22 | 966.4 |
| 20260901225351 | 87 | 190 | 1.0 | 5.0 | 0.00 | 0.00 | 0.00 | 25 | 966.4 |
| 20260901224852 | 87 | 220 | 1.0 | 5.0 | 0.00 | 0.00 | 0.00 | 23 | 966.5 |
| 20260901224349 | 86 | 151 | 0.0 | 4.0 | 0.00 | 0.00 | 0.00 | 26 | 966.6 |
| 20260901223852 | 86 | 210 | 0.0 | 5.0 | 0.00 | 0.00 | 0.00 | 25 | 966.7 |
| 20260901223349 | 87 | 186 | 1.0 | 5.0 | 0.00 | 0.00 | 0.00 | 23 | 966.7 |
| 20260901222851 | 86 | 161 | 0.0 | 4.0 | 0.00 | 0.00 | 0.00 | 24 | 966.8 |
| 20260901222351 | 86 | 162 | 0.0 | 7.0 | 0.00 | 0.00 | 0.00 | 23 | 966.8 |
| 20260901221851 | 86 | 158 | 3.0 | 7.0 | 0.00 | 0.00 | 0.00 | 23 | 966.8 |
| 20260901221351 | 87 | 159 | 2.0 | 5.0 | 0.00 | 0.00 | 0.00 | 24 | 966.9 |
| 20260901220851 | 87 | 25 | 1.0 | 5.0 | 0.00 | 0.00 | 0.00 | 26 | 967.0 |
| 20260901220348 | 87 | 310 | 1.0 | 3.0 | 0.00 | 0.00 | 0.00 | 24 | 967.0 |
| 20260901215851 | 86 | 186 | 1.0 | 4.0 | 0.00 | 0.00 | 0.00 | 25 | 967.1 |
| 20260901215348 | 86 | 186 | 1.0 | 4.0 | 0.00 | 0.00 | 0.00 | 27 | 967.3 |
| 20260901214851 | 87 | 158 | 0.0 | 4.0 | 0.00 | 0.00 | 0.00 | 24 | 967.3 |
| 20260901214349 | 87 | 164 | 0.0 | 4.0 | 0.00 | 0.00 | 0.00 | 24 | 967.5 |
| 20260901213851 | 87 | 161 | 1.0 | 5.0 | 0.00 | 0.00 | 0.00 | 25 | 967.5 |
| 20260901213348 | 87 | 155 | 3.0 | 5.0 | 0.00 | 0.00 | 0.00 | 23 | 967.6 |
| 20260901212851 | 86 | 233 | 1.0 | 4.0 | 0.00 | 0.00 | 0.00 | 24 | 967.7 |
| 20260901212348 | 87 | 212 | 0.0 | 2.0 | 0.00 | 0.00 | 0.00 | 24 | 967.7 |
| 20260901211850 | 87 | 221 | 0.0 | 3.0 | 0.00 | 0.00 | 0.00 | 22 | 967.9 |
| 20260901211348 | 86 | 188 | 0.0 | 3.0 | 0.00 | 0.00 | 0.00 | 23 | 967.9 |
| 20260901210848 | 87 | 196 | 1.0 | 6.0 | 0.00 | 0.00 | 0.00 | 23 | 968.0 |
| 20260901210353 | 86 | 209 | 1.0 | 4.0 | 0.00 | 0.00 | 0.00 | 25 | 968.1 |
| 20260901210347 | 87 | 196 | 1.0 | 6.0 | 0.00 | 0.00 | 0.00 | 23 | 968.1 |
| 20260901205348 | 86 | 240 | 0.0 | 4.0 | 0.00 | 0.00 | 0.00 | 23 | 968.2 |
| 20260901204848 | 85 | 226 | 0.0 | 4.0 | 0.00 | 0.00 | 0.00 | 26 | 968.2 |
| 20260901204349 | 85 | 188 | 0.0 | 5.0 | 0.00 | 0.00 | 0.00 | 26 | 968.2 |
| 20260901203848 | 85 | 140 | 0.0 | 6.0 | 0.00 | 0.00 | 0.00 | 26 | 968.3 |
| 20260901203346 | 85 | 155 | 1.0 | 6.0 | 0.00 | 0.00 | 0.00 | 28 | 968.2 |
| 20260901202849 | 85 | 1 | 1.0 | 5.0 | 0.00 | 0.00 | 0.00 | 28 | 968.5 |
| 20260901202347 | 86 | 165 | 0.0 | 4.0 | 0.00 | 0.00 | 0.00 | 28 | 968.5 |
| 20260901201849 | 85 | 165 | 0.0 | 4.0 | 0.00 | 0.00 | 0.00 | 27 | 968.5 |
| 20260901201346 | 86 | 0 | 0.0 | 1.0 | 0.00 | 0.00 | 0.00 | 29 | 968.6 |
| 20260901200849 | 86 | 0 | 0.0 | 5.0 | 0.00 | 0.00 | 0.00 | 25 | 968.5 |
| 20260901200353 | 85 | 0 | 2.0 | 5.0 | 0.00 | 0.00 | 0.00 | 32 | 968.6 |
| 20260901200345 | 86 | 0 | 0.0 | 5.0 | 0.00 | 0.00 | 0.00 | 29 | 968.6 |
| 20260901195345 | 85 | 157 | 0.0 | 3.0 | 0.00 | 0.00 | 0.00 | 29 | 968.7 |
| 20260901194846 | 86 | 155 | 0.0 | 3.0 | 0.00 | 0.00 | 0.00 | 34 | 968.8 |
| 20260901194347 | 85 | 155 | 3.0 | 3.0 | 0.00 | 0.00 | 0.00 | 32 | 968.9 |
| 20260901193846 | 84 | 157 | 0.0 | 2.0 | 0.00 | 0.00 | 0.00 | 33 | 968.9 |
| 20260901193347 | 84 | 157 | 0.0 | 2.0 | 0.00 | 0.00 | 0.00 | 31 | 969.0 |
| 20260901192845 | 83 | 155 | 0.0 | 2.0 | 0.00 | 0.00 | 0.00 | 34 | 969.1 |
| 20260901192345 | 82 | 157 | 0.0 | 2.0 | 0.00 | 0.00 | 0.00 | 35 | 969.1 |
| 20260901191844 | 81 | 159 | 0.0 | 2.0 | 0.00 | 0.00 | 0.00 | 33 | 969.2 |
| 20260901191344 | 80 | 161 | 0.0 | 3.0 | 0.00 | 0.00 | 0.00 | 34 | 969.3 |
| 20260901191012 | 77 | 171 | 0.0 | 0.0 | 0.00 | 0.00 | 0.00 | 43 | 969.6 |
| 20260901190853 | 78 | 171 | 0.0 | 0.0 | 0.00 | 0.00 | 0.00 | 40 | 969.5 |
| 20260901190845 | 80 | 164 | 2.0 | 3.0 | 0.00 | 0.00 | 0.00 | 34 | 969.3 |
| 20260901190632 | 77 | 171 | 0.0 | 1.0 | 0.00 | 0.00 | 0.00 | 37 | 969.6 |
| 20260901184845 | 77 | 171 | 0.0 | 1.0 | 0.00 | 0.00 | 0.00 | 39 | 969.5 |
| 20260901184344 | 77 | 171 | 0.0 | 1.0 | 0.00 | 0.00 | 0.00 | 39 | 969.6 |
| 20260901183843 | 78 | 171 | 0.0 | 1.0 | 0.00 | 0.00 | 0.00 | 41 | 969.7 |
| 20260901183352 | 79 | 171 | 0.0 | 3.0 | 0.00 | 0.00 | 0.00 | 35 | 969.9 |
| 20260901183344 | 78 | 171 | 0.0 | 3.0 | 0.00 | 0.00 | 0.00 | 40 | 969.7 |
| 20260901182343 | 79 | 171 | 0.0 | 3.0 | 0.00 | 0.00 | 0.00 | 35 | 969.9 |
| 20260901181843 | 78 | 171 | 0.0 | 3.0 | 0.00 | 0.00 | 0.00 | 37 | 969.9 |
| 20260901181345 | 78 | 171 | 0.0 | 2.0 | 0.00 | 0.00 | 0.00 | 38 | 970.0 |
| 20260901180842 | 78 | 169 | 0.0 | 3.0 | 0.00 | 0.00 | 0.00 | 37 | 970.1 |
| 20260901180344 | 78 | 169 | 0.0 | 3.0 | 0.00 | 0.00 | 0.00 | 38 | 970.2 |
| 20260901175843 | 78 | 233 | 0.0 | 2.0 | 0.00 | 0.00 | 0.00 | 38 | 970.2 |
| 20260901175343 | 77 | 233 | 0.0 | 2.0 | 0.00 | 0.00 | 0.00 | 40 | 970.3 |
| 20260901174843 | 75 | 240 | 0.0 | 2.0 | 0.00 | 0.00 | 0.00 | 43 | 970.3 |
| 20260901174343 | 74 | 240 | 0.0 | 0.0 | 0.00 | 0.00 | 0.00 | 44 | 970.6 |
| 20260901173851 | 72 | 240 | 0.0 | 0.0 | 0.00 | 0.00 | 0.00 | 52 | 970.7 |
| 20260901173844 | 73 | 240 | 0.0 | 0.0 | 0.00 | 0.00 | 0.00 | 49 | 970.6 |
| 20260901172843 | 71 | 240 | 0.0 | 0.0 | 0.00 | 0.00 | 0.00 | 54 | 970.7 |
| 20260901172343 | 71 | 240 | 0.0 | 1.0 | 0.00 | 0.00 | 0.00 | 55 | 970.7 |
| 20260901171849 | 71 | 240 | 0.0 | 1.0 | 0.00 | 0.00 | 0.00 | 54 | 970.8 |
| 20260901171841 | 71 | 240 | 0.0 | 1.0 | 0.00 | 0.00 | 0.00 | 54 | 970.8 |
| 20260901170841 | 71 | 240 | 0.0 | 1.0 | 0.00 | 0.00 | 0.00 | 52 | 970.8 |
| 20260901170341 | 71 | 240 | 0.0 | 1.0 | 0.00 | 0.00 | 0.00 | 53 | 970.8 |
| 20260901165842 | 71 | 240 | 0.0 | 2.0 | 0.00 | 0.00 | 0.00 | 54 | 970.8 |
| 20260901165342 | 70 | 240 | 0.0 | 2.0 | 0.00 | 0.00 | 0.00 | 57 | 970.9 |
| 20260901164849 | 69 | 241 | 0.0 | 3.0 | 0.00 | 0.00 | 0.00 | 56 | 971.0 |
| 20260901164841 | 70 | 240 | 0.0 | 3.0 | 0.00 | 0.00 | 0.00 | 55 | 970.9 |
| 20260901163841 | 68 | 241 | 0.0 | 2.0 | 0.00 | 0.00 | 0.00 | 59 | 971.1 |
| 20260901163341 | 67 | 240 | 0.0 | 0.0 | 0.00 | 0.00 | 0.00 | 60 | 971.1 |
| 20260901162841 | 66 | 240 | 0.0 | 2.0 | 0.00 | 0.00 | 0.00 | 62 | 971.1 |
| 20260901162340 | 65 | 240 | 0.0 | 3.0 | 0.00 | 0.00 | 0.00 | 63 | 971.1 |
| 20260901161841 | 65 | 240 | 2.0 | 3.0 | 0.00 | 0.00 | 0.00 | 64 | 971.0 |
| 20260901161349 | 63 | 241 | 1.0 | 3.0 | 0.00 | 0.00 | 0.00 | 65 | 971.1 |
| 20260901161342 | 64 | 241 | 0.0 | 3.0 | 0.00 | 0.00 | 0.00 | 66 | 971.0 |
| 20260901160341 | 63 | 243 | 0.0 | 2.0 | 0.00 | 0.00 | 0.00 | 66 | 971.1 |
| 20260901155847 | 61 | 243 | 0.0 | 1.0 | 0.00 | 0.00 | 0.00 | 68 | 971.2 |
| 20260901155840 | 62 | 243 | 0.0 | 1.0 | 0.00 | 0.00 | 0.00 | 69 | 971.2 |
| 20260901154838 | 61 | 243 | 0.0 | 1.0 | 0.00 | 0.00 | 0.00 | 70 | 971.1 |
| 20260901154340 | 60 | 243 | 0.0 | 0.0 | 0.00 | 0.00 | 0.00 | 69 | 971.1 |
| 20260901154005 | 57 | 243 | 0.0 | 2.0 | 0.00 | 0.00 | 0.00 | 75 | 971.2 |
| 20260901153846 | 58 | 243 | 0.0 | 2.0 | 0.00 | 0.00 | 0.00 | 73 | 971.3 |
| 20260901153839 | 59 | 243 | 0.0 | 1.0 | 0.00 | 0.00 | 0.00 | 71 | 971.1 |
| 20260901153004 | 56 | 243 | 1.0 | 2.0 | 0.00 | 0.00 | 0.00 | 77 | 971.3 |
| 20260901151838 | 55 | 243 | 0.0 | 1.0 | 0.00 | 0.00 | 0.00 | 80 | 971.3 |
| 20260901151338 | 54 | 243 | 0.0 | 1.0 | 0.00 | 0.00 | 0.00 | 80 | 971.3 |
| 20260901150838 | 53 | 243 | 0.0 | 1.0 | 0.00 | 0.00 | 0.00 | 81 | 971.4 |
| 20260901150514 | 52 | 243 | 1.0 | 2.0 | 0.00 | 0.00 | 0.00 | 82 | 971.2 |
| 20260901150345 | 53 | 243 | 0.0 | 2.0 | 0.00 | 0.00 | 0.00 | 81 | 971.4 |
| 20260901150337 | 53 | 243 | 0.0 | 1.0 | 0.00 | 0.00 | 0.00 | 81 | 971.4 |
| 20260901144846 | 52 | 243 | 0.0 | 3.0 | 0.00 | 0.00 | 0.00 | 83 | 971.3 |
| 20260901144839 | 52 | 243 | 0.0 | 1.0 | 0.00 | 0.00 | 0.00 | 83 | 971.3 |
| 20260901144503 | 52 | 243 | 0.0 | 3.0 | 0.00 | 0.00 | 0.00 | 83 | 971.2 |
| 20260901144001 | 51 | 243 | 0.0 | 3.0 | 0.00 | 0.00 | 0.00 | 84 | 971.2 |
| 20260901143502 | 51 | 243 | 0.0 | 3.0 | 0.00 | 0.00 | 0.00 | 85 | 971.3 |
| 20260901142337 | 51 | 241 | 0.0 | 0.0 | 0.00 | 0.00 | 0.00 | 86 | 971.3 |
| 20260901141836 | 51 | 241 | 0.0 | 0.0 | 0.00 | 0.00 | 0.00 | 86 | 971.3 |
| 20260901141339 | 50 | 241 | 0.0 | 0.0 | 0.00 | 0.00 | 0.00 | 87 | 971.4 |
| 20260901140837 | 50 | 241 | 0.0 | 0.0 | 0.00 | 0.00 | 0.00 | 88 | 971.3 |
| 20260901140338 | 49 | 241 | 0.0 | 0.0 | 0.00 | 0.00 | 0.00 | 89 | 971.3 |
| 20260901135837 | 49 | 241 | 0.0 | 1.0 | 0.00 | 0.00 | 0.00 | 89 | 971.2 |
| 20260901135337 | 48 | 241 | 0.0 | 2.0 | 0.00 | 0.00 | 0.00 | 89 | 971.2 |
| 20260901134837 | 48 | 241 | 0.0 | 2.0 | 0.00 | 0.00 | 0.00 | 89 | 971.2 |
| 20260901134336 | 47 | 241 | 0.0 | 1.0 | 0.00 | 0.00 | 0.00 | 89 | 971.2 |
| 20260901133837 | 47 | 243 | 0.0 | 0.0 | 0.00 | 0.00 | 0.00 | 89 | 971.3 |
| 20260901133337 | 47 | 243 | 0.0 | 2.0 | 0.00 | 0.00 | 0.00 | 89 | 971.3 |
| 20260901132843 | 47 | 245 | 0.0 | 0.0 | 0.00 | 0.00 | 0.00 | 88 | 971.3 |
| 20260901132836 | 46 | 243 | 0.0 | 2.0 | 0.00 | 0.00 | 0.00 | 88 | 971.3 |
| 20260901131836 | 47 | 245 | 0.0 | 1.0 | 0.00 | 0.00 | 0.00 | 89 | 971.2 |
| 20260901131335 | 46 | 245 | 0.0 | 1.0 | 0.00 | 0.00 | 0.00 | 88 | 971.3 |
| 20260901130836 | 46 | 245 | 0.0 | 0.0 | 0.00 | 0.00 | 0.00 | 88 | 971.1 |
| 20260901130336 | 46 | 245 | 0.0 | 0.0 | 0.00 | 0.00 | 0.00 | 87 | 971.2 |
| 20260901125836 | 46 | 245 | 0.0 | 0.0 | 0.00 | 0.00 | 0.00 | 87 | 971.2 |
| 20260901125335 | 47 | 245 | 0.0 | 0.0 | 0.00 | 0.00 | 0.00 | 87 | 971.2 |
| 20260901124835 | 47 | 245 | 0.0 | 0.0 | 0.00 | 0.00 | 0.00 | 87 | 971.3 |
| 20260901124336 | 47 | 245 | 0.0 | 0.0 | 0.00 | 0.00 | 0.00 | 87 | 971.2 |
| 20260901123834 | 47 | 245 | 0.0 | 0.0 | 0.00 | 0.00 | 0.00 | 86 | 971.2 |
| 20260901123342 | 47 | 245 | 0.0 | 1.0 | 0.00 | 0.00 | 0.00 | 87 | 971.3 |
| 20260901123334 | 47 | 245 | 0.0 | 1.0 | 0.00 | 0.00 | 0.00 | 86 | 971.2 |
| 20260901122342 | 47 | 245 | 0.0 | 0.0 | 0.00 | 0.00 | 0.00 | 86 | 971.2 |
| 20260901122334 | 47 | 245 | 0.0 | 0.0 | 0.00 | 0.00 | 0.00 | 86 | 971.2 |
| 20260901121334 | 47 | 245 | 0.0 | 0.0 | 0.00 | 0.00 | 0.00 | 86 | 971.3 |
| 20260901120835 | 47 | 245 | 0.0 | 0.0 | 0.00 | 0.00 | 0.00 | 86 | 971.4 |
| 20260901120334 | 47 | 245 | 0.0 | 1.0 | 0.00 | 0.00 | 0.00 | 86 | 971.4 |
| 20260901115835 | 47 | 245 | 0.0 | 1.0 | 0.00 | 0.00 | 0.00 | 86 | 971.3 |
| 20260901115334 | 47 | 245 | 0.0 | 1.0 | 0.00 | 0.00 | 0.00 | 86 | 971.3 |
| 20260901114833 | 47 | 245 | 0.0 | 0.0 | 0.00 | 0.00 | 0.00 | 86 | 971.3 |
| 20260901114334 | 47 | 245 | 0.0 | 0.0 | 0.00 | 0.00 | 0.00 | 86 | 971.3 |
| 20260901113841 | 48 | 245 | 0.0 | 0.0 | 0.00 | 0.00 | 0.00 | 86 | 971.4 |
| 20260901113833 | 48 | 245 | 0.0 | 0.0 | 0.00 | 0.00 | 0.00 | 86 | 971.4 |
| 20260901112833 | 48 | 245 | 0.0 | 1.0 | 0.00 | 0.00 | 0.00 | 86 | 971.5 |
| 20260901112334 | 48 | 245 | 0.0 | 1.0 | 0.00 | 0.00 | 0.00 | 86 | 971.5 |
| 20260901111832 | 48 | 245 | 0.0 | 0.0 | 0.00 | 0.00 | 0.00 | 86 | 971.5 |
| 20260901111333 | 48 | 245 | 0.0 | 0.0 | 0.00 | 0.00 | 0.00 | 86 | 971.5 |
| 20260901110832 | 48 | 245 | 0.0 | 0.0 | 0.00 | 0.00 | 0.00 | 86 | 971.5 |
| 20260901110331 | 48 | 245 | 0.0 | 0.0 | 0.00 | 0.00 | 0.00 | 85 | 971.4 |
| 20260901105832 | 48 | 245 | 0.0 | 0.0 | 0.00 | 0.00 | 0.00 | 85 | 971.5 |
| 20260901105340 | 49 | 245 | 0.0 | 0.0 | 0.00 | 0.00 | 0.00 | 85 | 971.4 |
| 20260901105332 | 48 | 245 | 0.0 | 0.0 | 0.00 | 0.00 | 0.00 | 85 | 971.5 |
| 20260901104333 | 49 | 245 | 0.0 | 0.0 | 0.00 | 0.00 | 0.00 | 85 | 971.3 |
| 20260901103833 | 49 | 245 | 0.0 | 0.0 | 0.00 | 0.00 | 0.00 | 85 | 971.3 |
| 20260901103331 | 49 | 245 | 0.0 | 0.0 | 0.00 | 0.00 | 0.00 | 85 | 971.3 |
| 20260901102841 | 49 | 245 | 0.0 | 0.0 | 0.00 | 0.00 | 0.00 | 84 | 971.4 |
| 20260901102832 | 49 | 245 | 0.0 | 0.0 | 0.00 | 0.00 | 0.00 | 84 | 971.3 |
| 20260901101831 | 49 | 245 | 0.0 | 0.0 | 0.00 | 0.00 | 0.00 | 84 | 971.3 |
| 20260901101332 | 49 | 245 | 0.0 | 0.0 | 0.00 | 0.00 | 0.00 | 84 | 971.3 |
| 20260901100838 | 49 | 245 | 0.0 | 0.0 | 0.00 | 0.00 | 0.00 | 84 | 971.3 |
| 20260901100832 | 49 | 245 | 0.0 | 0.0 | 0.00 | 0.00 | 0.00 | 84 | 971.2 |
| 20260901095831 | 49 | 245 | 0.0 | 0.0 | 0.00 | 0.00 | 0.00 | 83 | 971.3 |
| 20260901095331 | 49 | 245 | 0.0 | 0.0 | 0.00 | 0.00 | 0.00 | 83 | 971.4 |
| 20260901094829 | 50 | 245 | 0.0 | 0.0 | 0.00 | 0.00 | 0.00 | 82 | 971.4 |
| 20260901094330 | 50 | 245 | 0.0 | 0.0 | 0.00 | 0.00 | 0.00 | 82 | 971.3 |
| 20260901093838 | 50 | 245 | 0.0 | 0.0 | 0.00 | 0.00 | 0.00 | 82 | 971.3 |
| 20260901093830 | 50 | 245 | 0.0 | 0.0 | 0.00 | 0.00 | 0.00 | 82 | 971.2 |
| 20260901093449 | 51 | 245 | 0.0 | 0.0 | 0.00 | 0.00 | 0.00 | 82 | 971.4 |
| 20260901092330 | 51 | 245 | 0.0 | 0.0 | 0.00 | 0.00 | 0.00 | 82 | 971.4 |
| 20260901091830 | 51 | 245 | 0.0 | 0.0 | 0.00 | 0.00 | 0.00 | 82 | 971.4 |
| 20260901091330 | 51 | 245 | 0.0 | 2.0 | 0.00 | 0.00 | 0.00 | 82 | 971.4 |
| 20260901090830 | 51 | 245 | 0.0 | 2.0 | 0.00 | 0.00 | 0.00 | 81 | 971.4 |
| 20260901090330 | 51 | 245 | 0.0 | 2.0 | 0.00 | 0.00 | 0.00 | 81 | 971.4 |
| 20260901085829 | 51 | 244 | 0.0 | 0.0 | 0.00 | 0.00 | 0.00 | 79 | 971.5 |
| 20260901085330 | 51 | 245 | 0.0 | 2.0 | 0.00 | 0.00 | 0.00 | 78 | 971.5 |
| 20260901084836 | 52 | 261 | 0.0 | 4.0 | 0.00 | 0.00 | 0.00 | 79 | 971.6 |
| 20260901084829 | 52 | 245 | 0.0 | 4.0 | 0.00 | 0.00 | 0.00 | 78 | 971.7 |
| 20260901083829 | 52 | 264 | 0.0 | 2.0 | 0.00 | 0.00 | 0.00 | 79 | 971.7 |
| 20260901083328 | 52 | 265 | 0.0 | 0.0 | 0.00 | 0.00 | 0.00 | 78 | 971.6 |
| 20260901082829 | 52 | 265 | 0.0 | 0.0 | 0.00 | 0.00 | 0.00 | 78 | 971.6 |
| 20260901082328 | 52 | 265 | 0.0 | 0.0 | 0.00 | 0.00 | 0.00 | 77 | 971.6 |
| 20260901081835 | 53 | 265 | 0.0 | 2.0 | 0.00 | 0.00 | 0.00 | 76 | 971.6 |
| 20260901081828 | 53 | 265 | 0.0 | 2.0 | 0.00 | 0.00 | 0.00 | 76 | 971.6 |
| 20260901080829 | 53 | 266 | 0.0 | 1.0 | 0.00 | 0.00 | 0.00 | 76 | 971.7 |
| 20260901080327 | 53 | 268 | 0.0 | 2.0 | 0.00 | 0.00 | 0.00 | 75 | 971.7 |
| 20260901075829 | 53 | 271 | 0.0 | 2.0 | 0.00 | 0.00 | 0.00 | 76 | 971.7 |
| 20260901075335 | 53 | 274 | 0.0 | 4.0 | 0.00 | 0.00 | 0.00 | 76 | 971.8 |
| 20260901075328 | 53 | 271 | 0.0 | 2.0 | 0.00 | 0.00 | 0.00 | 76 | 971.8 |
| 20260901074326 | 54 | 213 | 0.0 | 4.0 | 0.00 | 0.00 | 0.00 | 76 | 971.8 |
| 20260901073834 | 53 | 193 | 0.0 | 3.0 | 0.00 | 0.00 | 0.00 | 76 | 971.9 |
| 20260901073826 | 54 | 175 | 0.0 | 4.0 | 0.00 | 0.00 | 0.00 | 76 | 971.8 |
| 20260901072827 | 53 | 214 | 0.0 | 3.0 | 0.00 | 0.00 | 0.00 | 76 | 972.0 |
| 20260901072327 | 53 | 213 | 0.0 | 4.0 | 0.00 | 0.00 | 0.00 | 76 | 972.0 |
| 20260901071826 | 54 | 220 | 0.0 | 4.0 | 0.00 | 0.00 | 0.00 | 76 | 971.9 |
| 20260901071328 | 54 | 223 | 0.0 | 2.0 | 0.00 | 0.00 | 0.00 | 76 | 971.8 |
| 20260901070826 | 54 | 223 | 0.0 | 2.0 | 0.00 | 0.00 | 0.00 | 77 | 971.9 |
| 20260901070327 | 54 | 224 | 0.0 | 1.0 | 0.00 | 0.00 | 0.00 | 79 | 971.9 |
| 20260901065829 | 54 | 224 | 0.0 | 1.0 | 0.00 | 0.00 | 0.00 | 78 | 972.0 |
| 20260901065326 | 54 | 224 | 0.0 | 1.0 | 0.00 | 0.00 | 0.00 | 78 | 971.8 |
| 20260901064835 | 55 | 197 | 0.0 | 5.0 | 0.00 | 0.00 | 0.00 | 75 | 971.7 |
| 20260901064827 | 54 | 195 | 0.0 | 5.0 | 0.00 | 0.00 | 0.00 | 78 | 971.7 |
| 20260901063834 | 55 | 209 | 0.0 | 0.0 | 0.00 | 0.00 | 0.00 | 72 | 971.9 |
| 20260901063827 | 55 | 207 | 0.0 | 2.0 | 0.00 | 0.00 | 0.00 | 73 | 971.8 |
| 20260901062833 | 56 | 212 | 0.0 | 2.0 | 0.00 | 0.00 | 0.00 | 72 | 971.8 |
| 20260901062825 | 55 | 212 | 0.0 | 2.0 | 0.00 | 0.00 | 0.00 | 72 | 971.8 |
| 20260901061825 | 56 | 212 | 0.0 | 1.0 | 0.00 | 0.00 | 0.00 | 71 | 971.8 |
| 20260901061325 | 56 | 212 | 0.0 | 0.0 | 0.00 | 0.00 | 0.00 | 71 | 971.8 |
| 20260901060824 | 56 | 212 | 0.0 | 1.0 | 0.00 | 0.00 | 0.00 | 71 | 971.8 |
| 20260901060326 | 56 | 212 | 0.0 | 1.0 | 0.00 | 0.00 | 0.00 | 71 | 971.9 |
| 20260901055825 | 56 | 212 | 0.0 | 0.0 | 0.00 | 0.00 | 0.00 | 71 | 971.9 |
| 20260901055326 | 56 | 212 | 0.0 | 0.0 | 0.00 | 0.00 | 0.00 | 70 | 971.9 |
| 20260901054825 | 57 | 212 | 0.0 | 2.0 | 0.00 | 0.00 | 0.00 | 68 | 971.9 |
| 20260901054324 | 58 | 212 | 0.0 | 5.0 | 0.00 | 0.00 | 0.00 | 68 | 972.0 |
| 20260901053831 | 57 | 168 | 0.0 | 9.0 | 0.00 | 0.00 | 0.00 | 68 | 972.0 |
| 20260901053824 | 58 | 214 | 0.0 | 9.0 | 0.00 | 0.00 | 0.00 | 68 | 972.0 |
| 20260901052825 | 58 | 186 | 0.0 | 2.0 | 0.00 | 0.00 | 0.00 | 68 | 972.1 |
| 20260901052324 | 58 | 224 | 0.0 | 5.0 | 0.00 | 0.00 | 0.00 | 67 | 972.1 |
| 20260901051823 | 58 | 188 | 0.0 | 5.0 | 0.00 | 0.00 | 0.00 | 66 | 972.1 |
| 20260901051323 | 59 | 241 | 0.0 | 2.0 | 0.00 | 0.00 | 0.00 | 66 | 972.2 |
| 20260901050822 | 59 | 241 | 0.0 | 1.0 | 0.00 | 0.00 | 0.00 | 65 | 972.1 |
| 20260901050323 | 60 | 241 | 0.0 | 1.0 | 0.00 | 0.00 | 0.00 | 65 | 972.0 |
| 20260901045822 | 60 | 241 | 0.0 | 0.0 | 0.00 | 0.00 | 0.00 | 64 | 972.0 |
| 20260901045331 | 60 | 241 | 0.0 | 1.0 | 0.00 | 0.00 | 0.00 | 63 | 972.1 |
| 20260901045323 | 60 | 241 | 0.0 | 0.0 | 0.00 | 0.00 | 0.00 | 64 | 972.0 |
| 20260901044320 | 61 | 241 | 0.0 | 1.0 | 0.00 | 0.00 | 0.00 | 63 | 972.1 |
| 20260901043821 | 61 | 241 | 0.0 | 3.0 | 0.00 | 0.00 | 0.00 | 63 | 972.0 |
| 20260901043320 | 61 | 243 | 0.0 | 3.0 | 0.00 | 0.00 | 0.00 | 62 | 972.0 |
| 20260901042826 | 61 | 172 | 0.0 | 2.0 | 0.00 | 0.00 | 0.00 | 62 | 972.0 |
| 20260901042818 | 61 | 262 | 0.0 | 3.0 | 0.00 | 0.00 | 0.00 | 63 | 972.1 |
| 20260901041817 | 61 | 172 | 0.0 | 2.0 | 0.00 | 0.00 | 0.00 | 62 | 972.1 |
| 20260901041316 | 62 | 172 | 0.0 | 1.0 | 0.00 | 0.00 | 0.00 | 62 | 972.1 |
| 20260901040818 | 62 | 172 | 0.0 | 1.0 | 0.00 | 0.00 | 0.00 | 62 | 972.0 |
| 20260901040315 | 62 | 169 | 0.0 | 1.0 | 0.00 | 0.00 | 0.00 | 62 | 972.0 |
| 20260901035815 | 62 | 169 | 0.0 | 3.0 | 0.00 | 0.00 | 0.00 | 62 | 972.0 |
| 20260901035315 | 61 | 169 | 0.0 | 3.0 | 0.00 | 0.00 | 0.00 | 63 | 971.9 |
| 20260901034814 | 62 | 196 | 0.0 | 3.0 | 0.00 | 0.00 | 0.00 | 60 | 972.0 |
| 20260901034315 | 63 | 244 | 0.0 | 3.0 | 0.00 | 0.00 | 0.00 | 59 | 971.9 |
| 20260901033815 | 63 | 99 | 0.0 | 1.0 | 0.00 | 0.00 | 0.00 | 59 | 971.8 |
| 20260901033319 | 64 | 21 | 0.0 | 1.0 | 0.00 | 0.00 | 0.00 | 58 | 971.6 |
| 20260901033312 | 65 | 11 | 0.0 | 1.0 | 0.00 | 0.00 | 0.00 | 57 | 971.6 |
| 20260901032310 | 65 | 11 | 0.0 | 0.0 | 0.00 | 0.00 | 0.00 | 55 | 971.6 |
| 20260901031809 | 66 | 13 | 0.0 | 1.0 | 0.00 | 0.00 | 0.00 | 53 | 971.5 |